This demonstration page uses our WeatherBlox Daily Observations layout. Learn more.

Left ArrowRight Arrow

30.21309, -93.2044

Hourly Observations for January 18, 2022

Temp ( °F °C ) Dew Point ( °F °C ) Humidity (%) Winds ( mph kmh ) Pressure ( in mb ) Visibility ( mi km ) Precip ( " mm )
12:15 am 00:15 Clear 42 5.5 40 4.4 93 93 SE 5 7 30.15 1021 10 16 0.00 0.00
12:35 am 00:35 Clear 41 4.9 39 4 94 94 SE 6 9 30.14 1021 10 16 0.00 0.00
12:55 am 00:55 Clear 41 5.2 39 3.8 91 91 S 3 6 30.14 1021 10 16 0.00 0.00
1:15 am 01:15 Clear 39 4 37 2.9 93 93 Calm 30.13 1020 10 16 0.00 0.00
1:35 am 01:35 Clear 40 4.6 39 3.7 94 94 Calm 30.13 1020 7 11 0.00 0.00
1:55 am 01:55 Clear with Mist and Fog 40 4.7 39 4 95 95 S 3 6 30.13 1020 5 8 0.00 0.00
2:15 am 02:15 Clear 41 5.2 40 4.5 95 95 SSE 3 6 30.12 1020 7 11 0.00 0.00
2:35 am 02:35 Clear 42 5.4 40 4.5 94 94 Calm 30.12 1020 7 11 0.00 0.00
2:55 am 02:55 Clear 37 2.9 35 1.8 93 93 ESE 3 6 30.12 1020 7 11 0.00 0.00
3:15 am 03:15 Clear with Mist and Fog 37 2.9 36 2.1 95 95 ESE 3 6 30.12 1020 4 6 0.00 0.00
3:35 am 03:35 Clear 41 4.8 39 4 95 95 E 3 6 30.13 1020 10 16 0.00 0.00
3:55 am 03:55 Clear 40 4.6 38 3.2 91 91 Calm 30.13 1020 10 16 0.00 0.00
4:15 am 04:15 Clear with Mist and Fog 37 2.6 35 1.6 93 93 E 5 7 30.12 1020 7 11 0.00 0.00
4:35 am 04:35 Clear 38 3.6 37 2.9 95 95 Calm 30.13 1020 7 11 0.00 0.00
4:55 am 04:55 Clear 39 4 38 3.2 95 95 E 3 6 30.12 1020 7 11 0.00 0.00
5:15 am 05:15 Clear with Mist and Fog 38 3.6 37 2.9 95 95 ESE 5 7 30.12 1020 2 3 0.00 0.00
5:35 am 05:35 Clear with Mist and Fog 38 3.2 37 2.6 96 96 ESE 5 7 30.12 1020 3 4 0.00 0.00
6:00 am 06:00 Mostly Clear 39 4 37 3 93 93 ESE 5 7 30.13 1020 10 16 0.00 0.00
6:47 am 06:47 Mostly Clear 39 4 37 3 93 93 ESE 6 9 30.14 1021 10 16 0.00 0.00
7:55 am 07:55 Mostly Sunny 39 4 37 3 93 93 ESE 6 9 30.15 1021 10 16 0.00 0.00
8:52 am 08:52 Mostly Sunny 50 10 45 7 82 82 SE 13 20 30.16 1021 10 16 0.00 0.00
9:53 am 09:53 Mostly Sunny 57 14 46 8 67 67 SSE 15 24 30.18 1022 10 16 0.00 0.00
10:45 am 10:45 Mostly Sunny 63 17 46 8 56 56 SSE 15 24 30.16 1021 10 16 0.00 0.00
11:45 am 11:45 Mostly Sunny 64 18 46 8 52 52 SE 14 22 30.15 1021 10 16 0.00 0.00
12:55 pm 12:55 Mostly Cloudy 66 19 48 9 52 52 SE 13 20 30.10 1019 10 16 0.00 0.00
1:50 pm 13:50 Mostly Cloudy 68 20 50 10 53 53 SSE 15 24 30.07 1018 10 16 0.00 0.00
2:54 pm 14:54 Mostly Cloudy 72 22 52 11 50 50 S 20 31 30.05 1018 10 16 0.00 0.00
3:54 pm 15:54 Partly Cloudy 68 20 52 11 56 56 S 18 30 30.04 1017 10 16 0.00 0.00
4:55 pm 16:55 Mostly Cloudy 64 18 52 11 64 64 SSE 10 17 30.04 1017 10 16 0.00 0.00
5:51 pm 17:51 Mostly Cloudy 61 16 52 11 72 72 SE 9 15 30.04 1017 10 16 0.00 0.00
6:51 pm 18:51 Mostly Clear 57 14 52 11 82 82 SE 9 15 30.03 1017 10 16 0.00 0.00
7:55 pm 19:55 Mostly Clear 57 14 52 11 82 82 SSE 15 24 30.02 1017 10 16 0.00 0.00
8:52 pm 20:52 Mostly Clear 55 13 52 11 88 88 SSE 10 17 30.03 1017 10 16 0.00 0.00
9:54 pm 21:54 Mostly Clear 54 12 52 11 94 94 SE 9 15 30.03 1017 10 16 0.00 0.00
10:15 pm 22:15 Clear 54 12.4 51 10.7 89 89 SE 9 15 30.04 1017 10 16 0.00 0.00
10:35 pm 22:35 Clear 55 12.5 51 10.8 89 89 SE 10 17 30.04 1017 10 16 0.00 0.00
10:55 pm 22:55 Clear 54 12.3 51 10.8 91 91 SSE 10 17 30.04 1017 10 16 0.00 0.00
11:15 pm 23:15 Clear 55 12.5 52 11 91 91 SSE 12 19 30.03 1017 10 16 0.00 0.00
11:35 pm 23:35 Partly Cloudy 55 12.8 53 11.4 91 91 SE 12 19 30.03 1017 10 16 0.00 0.00
11:55 pm 23:55 Cloudy 56 13.3 53 11.6 90 90 SSE 10 17 30.03 1017 10 16 0.00 0.00

Powered by AerisWeather